TimeIST,TemperatureF,Dew PointF,Humidity,Sea Level PressureIn,VisibilityMPH,Wind Direction,Wind SpeedMPH,Gust SpeedMPH,PrecipitationIn,Events,Conditions,WindDirDegrees,DateUTC
12:00 AM,59.0,57.2,94,30.33,6.2,West,8.1,-,N/A,,Partly Cloudy,260,2013-09-02 23:00:00
12:30 AM,59.0,57.2,94,30.33,6.2,WSW,8.1,-,N/A,,Partly Cloudy,240,2013-09-02 23:30:00
1:00 AM,59,56,86,30.35,19,WSW,8.9,,,,Scattered Clouds,240,2013-09-03 00:00:00
1:00 AM,59.0,55.4,88,30.33,6.2,WSW,9.2,-,N/A,,Partly Cloudy,240,2013-09-03 00:00:00
1:30 AM,57.2,55.4,94,30.33,6.2,WSW,9.2,-,N/A,,Scattered Clouds,240,2013-09-03 00:30:00
2:00 AM,59.0,55.4,88,30.33,6.2,WSW,9.2,-,N/A,,Mostly Cloudy,240,2013-09-03 01:00:00
2:30 AM,59.0,57.2,94,30.33,6.2,West,8.1,-,N/A,,Mostly Cloudy,260,2013-09-03 01:30:00
3:00 AM,57.2,55.4,94,30.33,6.2,WSW,4.6,-,N/A,,Mostly Cloudy,240,2013-09-03 02:00:00
3:30 AM,59.0,57.2,94,30.33,6.2,WSW,5.8,-,N/A,,Mostly Cloudy,240,2013-09-03 02:30:00
4:00 AM,59.0,57.2,94,30.33,6.2,West,6.9,-,N/A,,Mostly Cloudy,270,2013-09-03 03:00:00
4:30 AM,57.2,55.4,94,30.33,6.2,WSW,5.8,-,N/A,,Mostly Cloudy,250,2013-09-03 03:30:00
5:00 AM,57.2,55.4,94,30.33,6.2,Variable,3.5,-,N/A,,Mostly Cloudy,0,2013-09-03 04:00:00
5:30 AM,57.2,55.4,94,30.33,6.2,SW,3.5,-,N/A,,Mostly Cloudy,220,2013-09-03 04:30:00
6:00 AM,57.2,55.4,94,30.33,6.2,SW,4.6,-,N/A,,Mostly Cloudy,230,2013-09-03 05:00:00
6:30 AM,57.2,55.4,94,30.33,6.2,SW,2.3,-,N/A,,Mostly Cloudy,230,2013-09-03 05:30:00
7:00 AM,57.2,55.4,94,30.33,6.2,SSW,4.6,-,N/A,,Mostly Cloudy,210,2013-09-03 06:00:00
7:30 AM,57.2,55.4,94,30.30,6.2,WSW,5.8,-,N/A,,Mostly Cloudy,250,2013-09-03 06:30:00
8:00 AM,59.0,55.4,88,30.30,6.2,WSW,5.8,-,N/A,,Mostly Cloudy,240,2013-09-03 07:00:00
8:30 AM,60.8,55.4,82,30.30,6.2,SW,6.9,-,N/A,,Mostly Cloudy,230,2013-09-03 07:30:00
9:00 AM,60.8,57.2,88,30.30,6.2,SSE,5.8,-,N/A,,Mostly Cloudy,160,2013-09-03 08:00:00
9:30 AM,62.6,57.2,82,30.30,6.2,SE,8.1,-,N/A,,Scattered Clouds,140,2013-09-03 08:30:00
10:00 AM,66.2,57.2,73,30.30,6.2,ESE,4.6,-,N/A,,Mostly Cloudy,120,2013-09-03 09:00:00
10:30 AM,62.6,57.2,82,30.30,6.2,SSE,5.8,-,N/A,,Scattered Clouds,160,2013-09-03 09:30:00
11:00 AM,66.2,57.2,73,30.30,6.2,Variable,3.5,-,N/A,,Scattered Clouds,0,2013-09-03 10:00:00
11:30 AM,66.2,57.2,73,30.30,6.2,WSW,6.9,-,N/A,,Scattered Clouds,240,2013-09-03 10:30:00
12:00 PM,68.0,57.2,68,30.30,6.2,SE,5.8,-,N/A,,Scattered Clouds,140,2013-09-03 11:00:00
12:30 PM,68.0,57.2,68,30.27,6.2,NNW,5.8,-,N/A,,Scattered Clouds,340,2013-09-03 11:30:00
1:00 PM,69,56,53,30.28,31,SSW,4.5,,,,Scattered Clouds,210,2013-09-03 12:00:00
1:00 PM,69.8,55.4,60,30.27,6.2,Variable,2.3,-,N/A,,Partly Cloudy,0,2013-09-03 12:00:00
1:30 PM,69.8,53.6,56,30.27,6.2,ESE,10.4,-,N/A,,Partly Cloudy,110,2013-09-03 12:30:00
2:00 PM,71.6,51.8,50,30.27,6.2,Variable,3.5,-,N/A,,Partly Cloudy,0,2013-09-03 13:00:00
2:30 PM,69.8,50.0,49,30.27,6.2,WSW,9.2,-,N/A,,Partly Cloudy,240,2013-09-03 13:30:00
3:00 PM,69.8,51.8,53,30.24,6.2,WSW,13.8,-,N/A,,Partly Cloudy,240,2013-09-03 14:00:00
4:00 PM,71.6,51.8,50,30.24,6.2,SW,12.7,-,N/A,,Partly Cloudy,230,2013-09-03 15:00:00
4:30 PM,71.6,50.0,46,30.21,6.2,SSW,12.7,-,N/A,,Partly Cloudy,210,2013-09-03 15:30:00
5:00 PM,71.6,51.8,50,30.21,6.2,WSW,10.4,-,N/A,,Partly Cloudy,240,2013-09-03 16:00:00
5:30 PM,71.6,50.0,46,30.21,6.2,West,12.7,-,N/A,,Partly Cloudy,260,2013-09-03 16:30:00
6:00 PM,69.8,48.2,46,30.21,6.2,WSW,13.8,-,N/A,,Partly Cloudy,250,2013-09-03 17:00:00
6:30 PM,69.8,48.2,46,30.21,6.2,WSW,11.5,-,N/A,,Partly Cloudy,250,2013-09-03 17:30:00
7:00 PM,68,48,37,30.22,31,WSW,11.2,,,,Scattered Clouds,250,2013-09-03 18:00:00
7:00 PM,68.0,46.4,46,30.21,6.2,WSW,11.5,-,N/A,,Partly Cloudy,250,2013-09-03 18:00:00
7:30 PM,66.2,50.0,56,30.21,6.2,West,6.9,-,N/A,,Partly Cloudy,260,2013-09-03 18:30:00
8:00 PM,62.6,48.2,59,30.21,-9999.0,West,6.9,-,N/A,,Clear,280,2013-09-03 19:00:00
8:30 PM,59.0,48.2,67,30.21,-9999.0,West,6.9,-,N/A,,Clear,260,2013-09-03 19:30:00
9:00 PM,59.0,48.2,67,30.21,-9999.0,WSW,4.6,-,N/A,,Clear,250,2013-09-03 20:00:00
9:30 PM,59.0,51.8,77,30.21,-9999.0,WSW,6.9,-,N/A,,Clear,250,2013-09-03 20:30:00
10:00 PM,59.0,51.8,77,30.21,-9999.0,WSW,6.9,-,N/A,,Clear,240,2013-09-03 21:00:00
10:30 PM,59.0,51.8,77,30.21,-9999.0,WSW,5.8,-,N/A,,Clear,240,2013-09-03 21:30:00
11:00 PM,59.0,51.8,77,30.21,-9999.0,WSW,3.5,-,N/A,,Clear,250,2013-09-03 22:00:00
11:30 PM,57.2,51.8,82,30.21,-9999.0,SW,3.5,-,N/A,,Clear,230,2013-09-03 22:30:00